Location: UBC Liquid-Mirror Observatory
(49.2876°N, 122.5728°W)
Time: 12:20:42
(UTC-07:00)

Daily predictions for brighter satellites

Satellite Brightness Start Highest point End
(mag) Time Altitude Azimuth Time Altitude Azimuth Time Altitude Azimuth
Cosmos 2084 3.2 21:55:45 10° NW 21:59:37 78° SW 22:03:27 10° SE
Cosmos 1048 Rocket 4.1 21:56:04 10° S 22:01:19 66° ESE 22:06:40 10° NNE
Cosmos 2263 Rocket 3.0 21:57:12 10° SW 22:02:48 59° WNW 22:08:25 10° NNE
Cosmos 1340 3.7 22:03:33 10° N 22:07:01 32° ENE 22:10:27 10° SE
Cosmos 1315 Rocket 2.9 22:06:37 10° S 22:10:41 89° WNW 22:14:49 10° NNE
Cosmos 1953 Rocket 3.5 22:06:52 10° S 22:11:12 80° E 22:15:38 10° NNE
Resurs 01 Rocket 4.0 22:09:12 10° SW 22:12:29 20° W 22:15:48 10° NW
CZ-2C R/B 4.4 22:10:23 10° NE 22:13:38 16° E 22:16:50 10° ESE
Cosmos 1758 Rocket 3.8 22:12:25 10° SSW 22:16:52 76° W 22:21:18 10° N
Helios 1A 3.2 22:13:22 10° SSE 22:17:29 61° ENE 22:21:40 10° N
NOSS 2-3 (C) 4.5 22:13:12 10° SW 22:17:55 66° NW 22:23:42 10° NE
Cosmos 1300 4.1 22:15:34 10° NNE 22:18:46 25° ENE 22:21:57 10° SE
BREEZE-M R/B 4.4 22:10:31 10° W 22:18:55 84° N 22:24:38 10° E
BREEZE-M DEB (TANK) 3.6 22:11:01 10° SW 22:18:55 42° SSE 22:21:53 10° E
Cosmos 1437 3.2 22:17:01 10° NNW 22:20:09 57° W 22:23:15 10° S
In-Cosmos 22 4.3 22:15:24 10° SSW 22:20:57 87° W 22:26:42 10° NNE
Cosmos 1674 2.9 22:19:00 10° S 22:22:43 54° E 22:26:29 10° NNE
SL-08 RB Rocket 4.5 22:21:35 10° S 22:26:08 52° W 22:30:44 10° NNW
Helios 1B rocket 3.3 22:23:25 10° NNE 22:27:08 32° E 22:30:43 11° SSE
CENTAUR R/B 3.9 22:23:54 10° NW 22:31:07 45° NNE 22:39:05 10° ESE
Landsat 7 3.9 22:29:24 10° SSE 22:34:05 75° ENE 22:38:52 10° N
Cosmos 1110 Rocket 4.2 22:32:56 10° NNW 22:38:06 71° WSW 22:43:04 11° SSE
SPOT 1/Viking Rocket 3.6 22:34:12 10° SSE 22:39:21 84° WSW 22:44:32 10° NNW
Cosmos 2221 3.4 22:35:35 10° N 22:39:37 36° ENE 22:42:59 14° SE
H-2A R/B 3.1 22:34:53 10° S 22:39:54 43° W 22:45:04 10° NNW
APEX 3.0 22:37:27 10° NNW 22:40:20 56° ENE 22:43:01 15° SE
Cosmos 1726 2.1 22:38:51 10° N 22:42:37 86° W 22:46:03 12° S
Timation 1 Rocket 4.4 22:37:54 10° SSW 22:43:46 65° ESE 22:49:42 10° NE
Cosmos 1346 Rocket 4.0 22:42:28 10° NNW 22:46:11 38° W 22:49:56 10° SSW
Cosmos 921 Rocket 3.7 22:42:04 10° NNW 22:46:26 53° WSW 22:50:44 10° S
SL-14 R/B 4.0 22:46:27 15° SSE 22:49:18 37° E 22:52:56 10° NNE
Cosmos 1745 Rocket 4.0 22:44:38 10° N 22:51:03 85° E 22:56:54 12° S
Cosmos 2278 Rocket 3.0 22:47:07 12° SSE 22:51:35 32° ESE 22:56:32 10° NE
DMSP B5D2-2 4.2 22:47:16 10° NNE 22:52:33 83° WNW 22:57:47 10° SSW
Cosmos 1269 Rocket 4.4 22:47:32 10° SSW 22:52:49 69° WNW 22:58:09 10° NNE
Cosmos 1331 Rocket 4.4 22:48:13 10° NNW 22:53:20 60° WSW 22:58:01 12° S
Terra 1.9 22:49:22 14° SSE 22:53:27 76° ENE 22:58:14 10° N
COSMOS 2406 3.5 22:50:57 10° NNW 22:56:42 65° WSW 23:01:36 14° SSE
Meteor 2-10 4.3 22:52:08 10° NNW 22:57:29 75° W 23:02:37 12° S
Spot 1 4.1 22:55:26 15° SSE 22:59:01 87° ENE 23:03:39 10° NNW
KORONAS-FOTON 4.1 22:58:01 10° SSW 23:01:54 71° WNW 23:05:51 10° N
Cosmos 494 Rocket 4.0 23:00:27 10° SSW 23:05:42 87° WNW 23:11:02 10° NNE
USA 238 DEB 4.3 23:02:19 10° NW 23:09:12 53° WSW 23:14:59 15° SSE
USA 238 4.2 23:02:25 10° NW 23:09:18 53° WSW 23:15:05 15° SSE
CARTOSAT-1 3.8 23:07:22 15° S 23:10:54 65° WSW 23:15:14 10° NNW
ATLAS 3B R/B 2.8 23:05:54 10° NW 23:12:27 62° WSW 23:17:31 17° SSE
Cosmos 1844 3.8 23:07:01 10° SSW 23:12:44 87° WNW 23:18:34 10° NNE
Spot 4 4.4 23:09:45 17° SE 23:13:18 49° ENE 23:18:00 10° N
Cosmos 1844 Rocket 3.1 23:10:07 10° SW 23:15:45 67° WNW 23:21:25 10° NNE
Cosmos 1461 3.9 23:15:49 17° S 23:18:45 35° ESE 23:23:04 10° NE
Cosmos 1302 Rocket 4.3 23:14:42 10° NNW 23:19:57 63° WSW 23:23:53 18° S
CZ-2C R/B 3.4 23:15:56 16° S 23:20:42 79° WSW 23:26:30 10° NNW
Cosmos 220 Rocket 3.8 23:17:14 11° SSW 23:21:17 79° ESE 23:25:31 10° NNE
YAOGAN 11 4.2 23:18:20 18° S 23:21:40 81° WSW 23:26:15 10° NNW
S3M 4.3 23:15:22 10° SSW 23:21:43 71° WNW 23:28:08 10° N
ALOS 2 4.4 23:18:42 10° ESE 23:21:53 21° ENE 23:25:10 10° NNE
SPOT 5 4.2 23:18:03 10° SSW 23:22:42 36° W 23:27:33 10° NNW
NOSS 3-2 (A) 4.2 23:15:25 10° NW 23:22:47 66° SW 23:29:07 18° SSE
Cosmos 1709 Rocket 4.0 23:18:23 10° N 23:24:41 78° E 23:29:20 19° SSE
RESURS DK-1 4.2 23:24:09 15° ESE 23:24:49 15° ESE 23:27:14 10° ENE
Cosmos 2251 Rocket 3.5 23:20:28 10° SSW 23:25:45 75° ESE 23:31:05 10° NNE
IGS 5A 4.4 23:25:01 14° SSW 23:28:16 41° W 23:32:13 10° NNW
Meteor 1-29 3.2 23:25:36 10° N 23:29:01 67° WNW 23:31:40 15° SSW
Lacrosse 5 2.3 23:28:08 10° WSW 23:33:11 67° NNW 23:38:15 10° NE
Cosmos 2082 Rocket 2.4 23:29:40 10° NNW 23:35:24 66° ENE 23:39:31 19° SE
Cosmos 1076 Rocket 3.5 23:35:01 23° S 23:37:34 65° E 23:41:49 10° NNE
ATLAS 5 CENTAUR R/B 2.6 23:36:14 23° SSE 23:37:59 30° ESE 23:42:15 10° ENE
Cosmos 1992 Rocket 4.1 23:34:23 10° NNW 23:39:36 74° ENE 23:43:01 22° SSE
ATLAS 2AS CENTAUR R/B 3.4 23:32:30 10° SW 23:40:27 71° NW 23:48:36 10° NE
Cosmos 1833 Rocket 2.7 23:36:46 10° NNW 23:42:25 81° ENE 23:46:12 22° SSE
Cosmos 1626 2.0 23:44:30 25° S 23:46:35 86° E 23:50:21 10° N
NOSS 3-2 (C) 4.2 23:39:20 10° NW 23:46:43 64° SW 23:52:33 20° SSE
SL-8 R/B 3.7 23:45:15 10° WSW 23:50:00 59° SSE 23:54:47 10° E
H-2A R/B 3.7 23:47:40 13° ESE 23:50:18 23° ENE 23:53:33 10° N
Mayak 0.1 23:48:40 10° NE 23:52:10 26° E 23:53:36 21° SE
Cosmos 1455 2.3 23:50:35 10° N 23:54:20 62° ENE 23:56:01 30° SSE
Cosmos 1300 4.2 23:51:07 10° NNW 23:54:27 29° W 23:56:58 15° SW
Cosmos 1328 3.7 23:52:31 24° S 23:54:48 87° WNW 23:58:47 10° N
